FW7070 Weather Reports


time (UTC)temp
F
wind
direction
speed
knots
gust
knots
rain 1hr
in
rain 24hr
in
rain mn
in
humidity
%
barometer
mb
20260510081820 48 43 0.0 1.7 0.00 0.00 0.00 93 1030.3
20260510081316 49 37 1.7 1.7 0.00 0.00 0.00 93 1030.3
20260510080812 49 257 0.9 2.6 0.00 0.00 0.00 92 1030.4
20260510080307 49 155 0.9 2.6 0.00 0.00 0.00 93 1030.1
20260510075805 49 157 0.0 0.9 0.00 0.00 0.00 92 1030.3
20260510075305 49 128 1.7 2.6 0.00 0.00 0.00 92 1030.4
20260510074758 49 275 0.9 1.7 0.00 0.00 0.00 92 1030.4
20260510074255 49 77 0.9 1.7 0.00 0.00 0.00 91 1030.2
20260510073752 49 47 0.0 0.9 0.00 0.00 0.00 91 1030.3
20260510073247 49 286 0.0 2.6 0.00 0.00 0.00 92 1030.2
20260510072743 49 69 0.0 0.9 0.00 0.00 0.00 92 1029.5
20260510072240 50 112 0.9 2.6 0.00 0.00 0.00 92 1029.5
20260510071737 50 65 0.9 1.7 0.00 0.00 0.00 92 1029.8
20260510071233 50 121 0.9 1.7 0.00 0.00 0.00 93 1029.9
20260510070732 50 88 0.0 1.7 0.00 0.00 0.00 93 1029.9
20260510070229 50 125 1.7 2.6 0.00 0.00 0.00 94 1030.0
20260510065723 50 352 0.0 1.7 0.00 0.00 0.00 94 1029.9
20260510065220 50 275 1.7 2.6 0.00 0.00 0.00 94 1029.6
20260510064717 50 109 1.7 4.3 0.00 0.00 0.00 95 1029.5
20260510064215 50 336 0.0 1.7 0.00 0.00 0.00 95 1029.5
20260510063711 50 111 2.6 5.2 0.00 0.00 0.00 95 1029.3
20260510063207 51 77 2.6 4.3 0.00 0.00 0.00 96 1029.3
20260510062704 51 44 0.0 2.6 0.00 0.00 0.00 96 1029.4
20260510062200 51 257 1.7 3.5 0.00 0.00 0.00 96 1029.1
20260510061655 51 321 0.0 2.6 0.00 0.00 0.00 96 1029.1
20260510061152 51 141 0.0 1.7 0.00 0.00 0.00 96 1029.1
20260510060649 51 179 0.9 2.6 0.00 0.00 0.00 96 1028.9
20260510060145 51 11 0.0 1.7 0.00 0.00 0.00 96 1029.0
20260510055641 51 239 1.7 3.5 0.00 0.00 0.00 96 1028.9
20260510055140 51 222 0.0 1.7 0.00 0.00 0.00 96 1029.0
20260510054635 51 241 0.9 2.6 0.00 0.00 0.00 96 1028.8
20260510054131 51 322 1.7 4.3 0.00 0.00 0.00 96 1028.9
20260510053630 51 306 0.9 7.8 0.00 0.00 0.00 96 1029.1
20260510053127 51 296 2.6 6.1 0.00 0.00 0.00 95 1029.2
20260510052623 51 287 1.7 3.5 0.00 0.00 0.00 95 1028.9
20260510052119 51 325 1.7 6.1 0.00 0.00 0.00 95 1028.7
20260510051614 51 304 1.7 2.6 0.00 0.00 0.00 94 1028.5
20260510051112 51 313 0.0 2.6 0.00 0.00 0.00 94 1028.5
20260510050609 52 314 1.7 3.5 0.00 0.00 0.00 94 1028.3
20260510050106 53 22 0.9 2.6 0.00 0.00 0.00 94 1028.2
20260510045603 53 10 1.7 1.7 0.00 0.00 0.00 94 1027.9
20260510045059 53 49 2.6 3.5 0.00 0.00 0.00 94 1027.5
20260510044556 53 30 1.7 2.6 0.00 0.00 0.00 94 1027.6
20260510044053 53 88 0.9 2.6 0.00 0.00 0.00 94 1027.5
20260510043549 53 60 1.7 2.6 0.00 0.00 0.00 93 1027.3
20260510043045 53 154 0.9 1.7 0.00 0.00 0.00 93 1027.7
20260510042544 53 164 0.0 2.6 0.00 0.00 0.00 92 1027.6
20260510042039 54 77 0.9 1.7 0.00 0.00 0.00 90 1027.4
20260510041537 54 284 0.0 2.6 0.00 0.00 0.00 89 1027.0
20260510041034 55 250 2.6 4.3 0.00 0.00 0.00 89 1027.0
20260510040531 55 242 1.7 3.5 0.00 0.00 0.00 89 1027.0
20260510040027 55 223 0.9 7.0 0.00 0.00 0.00 89 1027.0
20260510035523 55 211 2.6 6.1 0.00 0.45 0.45 89 1026.7
20260510035023 55 244 1.7 7.0 0.00 0.45 0.45 88 1026.8
20260510034521 55 250 3.5 6.1 0.00 0.45 0.45 88 1026.9
20260510034018 55 259 2.6 5.2 0.00 0.45 0.45 88 1026.8
20260510033513 55 227 4.3 7.0 0.00 0.45 0.45 88 1026.8
20260510033012 55 208 3.5 9.6 0.00 0.45 0.45 88 1026.6
20260510032508 55 204 1.7 6.1 0.00 0.45 0.45 87 1026.5
20260510032008 55 232 5.2 7.8 0.00 0.45 0.45 87 1026.6
20260510031504 55 222 3.5 7.8 0.00 0.45 0.45 87 1026.5
20260510031000 55 258 4.3 7.8 0.00 0.45 0.45 87 1026.8
20260510030455 55 255 7.0 9.6 0.00 0.45 0.45 87 1026.7
20260510025953 55 239 7.0 8.7 0.00 0.45 0.45 87 1026.6
20260510025450 55 241 4.3 7.0 0.00 0.45 0.45 87 1026.7
20260510024947 55 226 2.6 7.8 0.00 0.45 0.45 88 1026.7
20260510024444 55 214 3.5 11.3 0.00 0.45 0.45 87 1026.8
20260510023939 55 227 1.7 9.6 0.00 0.45 0.45 88 1026.6
20260510023436 55 252 4.3 6.1 0.00 0.45 0.45 88 1026.6
20260510022933 55 235 1.7 5.2 0.00 0.45 0.45 88 1026.7
20260510022432 55 204 2.6 6.1 0.00 0.45 0.45 87 1026.6
20260510021931 55 235 3.5 11.3 0.00 0.45 0.45 87 1026.5
20260510021430 55 208 0.9 7.8 0.00 0.45 0.45 87 1026.6
20260510020926 55 229 4.3 8.7 0.00 0.45 0.45 87 1026.3
20260510020421 54 251 4.3 7.8 0.00 0.45 0.45 88 1026.1
20260510015917 54 216 2.6 6.1 0.00 0.45 0.45 88 1026.4
20260510015413 54 252 2.6 8.7 0.00 0.45 0.45 88 1026.4
20260510014908 54 250 3.5 6.1 0.00 0.45 0.45 88 1026.3
20260510014406 54 209 1.7 6.1 0.00 0.45 0.45 88 1026.3
20260510013902 54 224 1.7 7.8 0.00 0.45 0.45 88 1026.5
20260510013357 54 221 5.2 11.3 0.00 0.45 0.45 88 1026.3
20260510012852 55 241 1.7 6.1 0.00 0.45 0.45 88 1026.1
20260510012347 54 254 7.0 9.6 0.00 0.45 0.45 89 1026.0
20260510011842 54 252 7.0 10.4 0.00 0.45 0.45 89 1026.2
20260510011337 54 232 2.6 7.0 0.00 0.45 0.45 89 1026.0
20260510010834 54 240 6.1 7.8 0.00 0.45 0.45 90 1026.1
20260510010332 53 219 5.2 8.7 0.00 0.45 0.45 90 1025.6
20260510005828 53 227 4.3 7.8 0.00 0.45 0.45 92 1025.6
20260510005324 53 215 0.0 6.1 0.00 0.45 0.45 92 1025.8
20260510004822 53 274 2.6 6.1 0.00 0.45 0.45 92 1025.3
20260510004319 53 225 3.5 7.0 0.00 0.45 0.45 92 1025.4
20260510003817 53 252 4.3 7.0 0.00 0.45 0.45 93 1025.3
20260510003314 53 253 2.6 8.7 0.00 0.45 0.45 94 1025.8
20260510002813 53 218 4.3 7.8 0.00 0.45 0.45 95 1025.4
20260510002310 53 235 4.3 9.6 0.00 0.45 0.45 96 1025.4
20260510001806 52 225 6.1 11.3 0.12 0.45 0.45 97 1025.0
20260510001305 52 225 11.3 17.4 0.17 0.45 0.45 98 1025.4
20260510000800 51 241 7.0 14.8 0.26 0.43 0.43 98 1026.1
20260510000258 51 223 4.3 9.6 0.24 0.42 0.42 99 1026.4
20260509235755 51 222 7.0 9.6 0.21 0.39 0.39 99 1026.6
20260509235251 51 226 4.3 7.0 0.28 0.39 0.39 99 1026.5
20260509234747 51 252 0.9 6.1 0.24 0.35 0.35 99 1026.6
20260509234244 51 256 4.3 6.1 0.31 0.34 0.34 99 1026.8
20260509233743 51 220 1.7 6.1 0.28 0.32 0.32 98 1027.1
20260509233240 51 242 4.3 6.1 0.26 0.28 0.28 98 1027.2
20260509232735 50 258 4.3 7.0 0.24 0.26 0.26 98 1027.0
20260509232233 50 322 0.0 7.0 0.19 0.24 0.24 98 1026.9
20260509231729 50 325 2.6 5.2 0.26 0.22 0.22 98 1026.8
20260509231226 50 11 2.6 4.3 0.40 0.21 0.21 97 1026.3
20260509230724 50 87 2.6 4.3 0.52 0.18 0.18 97 1026.3
20260509230221 51 17 1.7 13.0 0.69 0.13 0.13 96 1026.5
20260509225716 51 288 1.7 13.0 0.47 0.08 0.08 95 1026.3
20260509225212 52 30 5.2 13.0 0.12 0.02 0.02 91 1026.0
20260509224708 54 305 5.2 11.3 0.00 0.00 0.00 89 1026.4
20260509224205 55 13 2.6 4.3 0.00 0.00 0.00 89 1025.4
20260509223702 56 48 2.6 2.6 0.00 0.00 0.00 87 1024.2
20260509223159 56 171 1.7 5.2 0.00 0.00 0.00 86 1024.1
20260509222656 56 15 1.7 3.5 0.00 0.00 0.00 86 1024.0
20260509222151 57 336 0.9 1.7 0.00 0.00 0.00 85 1023.7
20260509221647 57 20 0.9 2.6 0.00 0.00 0.00 86 1024.0
20260509221143 57 0 1.7 2.6 0.00 0.00 0.00 84 1023.8
20260509220639 57 351 1.7 2.6 0.00 0.00 0.00 84 1023.4
20260509220136 58 336 2.6 3.5 0.00 0.00 0.00 83 1023.4
20260509215632 58 78 0.9 2.6 0.00 0.00 0.00 82 1023.3
20260509215128 58 40 0.0 2.6 0.00 0.00 0.00 82 1023.4
20260509214626 58 334 0.0 2.6 0.00 0.00 0.00 81 1023.3
20260509214122 59 42 0.0 4.3 0.00 0.00 0.00 79 1023.4
20260509213619 60 348 2.6 3.5 0.00 0.00 0.00 78 1023.5
20260509213115 62 27 0.9 4.3 0.00 0.00 0.00 77 1023.4
20260509212613 60 28 3.5 4.3 0.00 0.00 0.00 76 1023.2
20260509212110 60 344 1.7 2.6 0.00 0.00 0.00 78 1023.4
20260509211605 59 77 0.0 1.7 0.00 0.00 0.00 79 1023.1
20260509211102 59 334 0.9 2.6 0.00 0.00 0.00 79 1023.3
20260509210559 58 230 0.0 2.6 0.00 0.00 0.00 80 1023.2
20260509210056 59 312 2.6 3.5 0.00 0.00 0.00 79 1023.5
20260509205555 60 34 1.7 3.5 0.00 0.00 0.00 78 1023.9
20260509205050 61 331 2.6 6.1 0.00 0.00 0.00 74 1023.7
20260509204548 66 276 2.6 6.1 0.00 0.00 0.00 64 1023.9
20260509204044 67 260 5.2 19.1 0.00 0.00 0.00 56 1023.6
20260509203539 67 234 8.7 13.0 0.00 0.00 0.00 56 1023.5
20260509203038 66 242 4.3 11.3 0.00 0.00 0.00 57 1023.5
20260509202532 66 256 9.6 13.0 0.00 0.00 0.00 56 1023.6
20260509202028 67 217 8.7 17.4 0.00 0.00 0.00 56 1023.6
20260509201524 67 271 7.8 12.2 0.00 0.00 0.00 56 1023.7
20260509201021 67 271 3.5 13.0 0.00 0.00 0.00 55 1023.6
20260509200516 67 265 3.5 11.3 0.00 0.00 0.00 57 1023.7
20260509200013 68 253 15.6 17.4 0.00 0.00 0.00 54 1023.7
20260509195508 67 280 1.7 12.2 0.00 0.00 0.00 58 1023.9
20260509195007 67 249 4.3 7.0 0.00 0.00 0.00 64 1024.2
20260509194504 65 232 2.6 9.6 0.00 0.00 0.00 65 1024.2
20260509194001 66 308 2.6 4.3 0.00 0.00 0.00 68 1024.0
20260509193500 64 272 2.6 6.1 0.00 0.00 0.00 69 1024.4
20260509192956 64 273 1.7 5.2 0.00 0.00 0.00 67 1024.5
20260509192453 65 253 3.5 7.8 0.00 0.00 0.00 68 1024.5
20260509191948 63 73 1.7 5.2 0.00 0.00 0.00 71 1024.4
20260509191444 62 337 2.6 6.1 0.00 0.00 0.00 71 1024.5
20260509190940 63 256 2.6 4.3 0.00 0.00 0.00 71 1024.7
20260509190437 63 261 2.6 7.0 0.00 0.00 0.00 72 1024.9
20260509185935 64 307 7.0 7.0 0.00 0.00 0.00 70 1025.1
20260509185432 63 293 3.5 5.2 0.00 0.00 0.00 70 1025.2
20260509184928 64 345 6.1 7.8 0.00 0.00 0.00 69 1025.3
20260509184426 63 257 2.6 5.2 0.00 0.00 0.00 72 1025.1
20260509183922 64 297 2.6 6.1 0.00 0.00 0.00 73 1025.2
20260509183417 63 309 1.7 7.0 0.00 0.00 0.00 72 1025.1
20260509182914 62 293 3.5 9.6 0.00 0.00 0.00 74 1025.0
20260509182410 62 335 3.5 7.0 0.00 0.00 0.00 74 1024.9
20260509181908 62 256 3.5 9.6 0.00 0.00 0.00 72 1025.0
20260509181405 62 302 6.1 8.7 0.00 0.00 0.00 73 1025.2
20260509180902 62 338 4.3 7.0 0.00 0.00 0.00 73 1025.6
20260509180358 63 248 4.3 6.1 0.00 0.00 0.00 71 1025.1
20260509175855 63 317 4.3 7.0 0.00 0.00 0.00 73 1025.1
20260509175351 62 317 2.6 5.2 0.00 0.00 0.00 74 1025.4
20260509174847 63 271 4.3 7.0 0.00 0.00 0.00 71 1025.3
20260509174343 62 256 4.3 7.8 0.00 0.00 0.00 73 1025.4
20260509173839 62 254 4.3 9.6 0.00 0.00 0.00 73 1025.6
20260509173335 62 274 4.3 6.1 0.00 0.00 0.00 73 1026.1
20260509172831 61 315 4.3 7.8 0.00 0.00 0.00 74 1025.9
20260509172328 62 257 5.2 9.6 0.00 0.00 0.00 73 1026.0
20260509171824 61 244 5.2 10.4 0.00 0.00 0.00 74 1026.1
20260509171319 61 258 2.6 11.3 0.00 0.00 0.00 76 1026.1
20260509170816 60 271 2.6 7.0 0.00 0.00 0.00 75 1026.0
20260509170312 60 280 2.6 4.3 0.00 0.00 0.00 77 1025.9
20260509165812 59 325 2.6 6.1 0.00 0.00 0.00 79 1026.2
20260509165307 59 255 6.1 7.8 0.00 0.00 0.00 80 1026.4
20260509164803 59 289 2.6 7.8 0.00 0.00 0.00 79 1026.3
20260509164259 60 241 1.7 3.5 0.00 0.00 0.00 77 1026.2
20260509163755 60 247 4.3 8.7 0.00 0.00 0.00 76 1026.5
20260509163247 58 235 5.2 7.0 0.00 0.00 0.00 79 1026.4
20260509162746 58 307 3.5 6.1 0.00 0.00 0.00 81 1026.7
20260509162245 58 264 3.5 5.2 0.00 0.00 0.00 80 1026.5
20260509161741 57 286 3.5 6.1 0.00 0.00 0.00 82 1026.6
20260509161237 58 285 6.1 7.8 0.00 0.00 0.00 81 1026.8
20260509160732 58 266 3.5 6.1 0.00 0.00 0.00 81 1026.7
20260509160229 58 312 2.6 6.1 0.00 0.00 0.00 80 1026.5
20260509155724 58 317 0.9 4.3 0.00 0.00 0.00 81 1026.8
20260509155221 58 286 1.7 4.3 0.00 0.00 0.00 80 1026.6
20260509154717 58 0 2.6 5.2 0.00 0.00 0.00 80 1026.8
20260509154214 59 335 2.6 5.2 0.00 0.00 0.00 79 1026.8
20260509153711 59 266 3.5 6.1 0.00 0.00 0.00 77 1026.8
20260509153208 60 266 3.5 12.2 0.00 0.00 0.00 76 1026.7
20260509152704 59 266 6.1 7.8 0.00 0.00 0.00 77 1026.8
20260509152200 60 207 2.6 7.8 0.00 0.00 0.00 76 1026.7
20260509151657 59 204 3.5 7.8 0.00 0.00 0.00 78 1026.6
20260509151154 59 218 3.5 12.2 0.00 0.00 0.00 79 1026.7
20260509150652 58 242 2.6 13.0 0.00 0.00 0.00 79 1026.7
20260509150150 59 255 7.8 11.3 0.00 0.00 0.00 78 1026.7
20260509145646 58 246 2.6 7.0 0.00 0.00 0.00 78 1026.8
20260509145141 59 205 5.2 9.6 0.00 0.00 0.00 78 1026.7
20260509144638 59 249 4.3 10.4 0.00 0.00 0.00 78 1026.6
20260509144136 58 231 2.6 9.6 0.00 0.00 0.00 78 1026.7
20260509143633 58 217 4.3 9.6 0.00 0.00 0.00 79 1026.6
20260509143130 57 261 6.1 6.1 0.00 0.00 0.00 79 1026.5
20260509142625 59 235 6.1 13.0 0.00 0.00 0.00 79 1026.9
20260509142122 58 272 5.2 9.6 0.00 0.00 0.00 79 1026.6
20260509141618 57 230 3.5 10.4 0.00 0.00 0.00 79 1026.5
20260509141114 57 238 4.3 10.4 0.00 0.00 0.00 81 1026.5
20260509140612 57 258 0.9 7.8 0.00 0.00 0.00 80 1026.7
20260509140110 57 220 2.6 12.2 0.00 0.00 0.00 81 1026.9
20260509135607 57 244 7.8 11.3 0.00 0.00 0.00 82 1026.8
20260509135105 57 262 7.8 9.6 0.00 0.00 0.00 82 1026.9
20260509134601 56 253 6.1 9.6 0.00 0.00 0.00 82 1026.9
20260509134058 56 203 6.1 9.6 0.00 0.00 0.00 82 1027.0
20260509133555 56 237 2.6 11.3 0.00 0.00 0.00 84 1026.9
20260509133053 56 240 6.1 13.0 0.00 0.00 0.00 83 1026.9
20260509132551 56 231 5.2 8.7 0.00 0.00 0.00 83 1026.9
20260509132049 55 234 2.6 13.9 0.00 0.00 0.00 85 1027.1
20260509131545 55 220 4.3 8.7 0.00 0.00 0.00 85 1027.0
20260509131042 55 213 7.8 11.3 0.00 0.00 0.00 84 1027.0
20260509130537 55 239 7.0 7.0 0.00 0.00 0.00 85 1027.1
20260509130034 55 228 5.2 9.6 0.00 0.00 0.00 85 1027.1
20260509125531 55 221 4.3 8.7 0.00 0.00 0.00 86 1027.3
20260509125028 55 235 5.2 9.6 0.00 0.00 0.00 86 1027.2
20260509124524 55 203 1.7 8.7 0.00 0.00 0.00 86 1027.2
20260509124022 55 213 2.6 8.7 0.00 0.00 0.00 87 1027.4
20260509123520 55 223 2.6 10.4 0.00 0.00 0.00 87 1027.3
20260509123015 54 233 8.7 11.3 0.00 0.00 0.00 87 1027.4
20260509122512 54 228 7.0 7.8 0.00 0.00 0.00 88 1027.6
20260509122009 54 219 5.2 7.0 0.00 0.00 0.00 88 1027.5
20260509121505 54 248 3.5 7.8 0.00 0.00 0.00 88 1027.5
20260509121003 54 245 2.6 7.8 0.00 0.00 0.00 89 1027.6
20260509120501 54 230 3.5 6.1 0.00 0.00 0.00 89 1027.5
20260509115959 53 206 4.3 8.7 0.00 0.00 0.00 90 1027.6
20260509115456 53 210 2.6 6.1 0.00 0.00 0.00 90 1027.6
20260509114953 53 212 2.6 7.8 0.00 0.00 0.00 90 1027.6
20260509114451 53 209 2.6 4.3 0.00 0.00 0.00 90 1027.7
20260509113951 53 211 3.5 6.1 0.00 0.00 0.00 90 1027.6
20260509113447 53 213 3.5 9.6 0.00 0.00 0.00 90 1027.4
20260509112944 53 217 1.7 4.3 0.00 0.00 0.00 91 1027.4
20260509112442 53 237 2.6 7.0 0.00 0.00 0.00 91 1027.7
20260509111938 52 166 1.7 6.1 0.00 0.00 0.00 91 1027.2
20260509111436 52 212 2.6 4.3 0.00 0.00 0.00 91 1027.5
20260509110933 52 180 1.7 4.3 0.00 0.00 0.00 91 1027.4
20260509110429 52 216 0.0 4.3 0.00 0.00 0.00 91 1027.5
20260509105927 52 198 2.6 6.1 0.00 0.00 0.00 91 1027.5
20260509105426 52 236 3.5 7.0 0.00 0.00 0.00 91 1027.4
20260509104922 52 207 1.7 4.3 0.00 0.00 0.00 92 1027.3
20260509104419 52 216 1.7 2.6 0.00 0.00 0.00 91 1027.3
20260509103916 52 198 0.9 4.3 0.00 0.00 0.00 91 1027.6
20260509103413 52 213 0.9 5.2 0.00 0.00 0.00 91 1027.8
20260509102912 52 209 2.6 2.6 0.00 0.00 0.00 92 1027.5
20260509102409 52 236 1.7 3.5 0.00 0.00 0.00 92 1027.5
20260509101905 52 213 0.9 2.6 0.00 0.00 0.00 92 1027.6
20260509101400 52 254 1.7 2.6 0.00 0.00 0.00 92 1027.4
20260509100859 52 206 1.7 7.0 0.00 0.00 0.00 92 1027.6
20260509100356 51 281 0.0 3.5 0.00 0.00 0.00 93 1027.6
20260509095852 51 248 1.7 4.3 0.00 0.00 0.00 93 1027.7
20260509095350 51 226 4.3 5.2 0.00 0.00 0.00 93 1027.6
20260509094847 51 211 2.6 4.3 0.00 0.00 0.00 93 1027.6
20260509094343 50 201 1.7 2.6 0.00 0.00 0.00 93 1027.6
20260509093841 50 199 1.7 2.6 0.00 0.00 0.00 94 1027.5
20260509093338 50 252 1.7 1.7 0.00 0.00 0.00 93 1027.6
20260509092837 50 255 0.9 3.5 0.00 0.00 0.00 93 1027.8
20260509092334 50 255 0.0 4.3 0.00 0.00 0.00 93 1027.5
20260509091832 51 239 2.6 4.3 0.00 0.00 0.00 92 1027.5
20260509091328 50 186 0.0 2.6 0.00 0.00 0.00 92 1027.6
20260509090826 51 212 2.6 5.2 0.00 0.00 0.00 92 1027.6
20260509090323 51 197 2.6 6.1 0.00 0.00 0.00 92 1027.5
20260509085820 51 269 1.7 5.2 0.00 0.00 0.00 91 1027.6
20260509085318 51 269 0.9 4.3 0.00 0.00 0.00 91 1027.4
20260509084814 51 196 0.9 7.0 0.00 0.00 0.00 91 1027.5
20260509084311 51 181 1.7 5.2 0.00 0.00 0.00 91 1027.7
20260509083809 51 143 0.9 4.3 0.00 0.00 0.00 91 1027.5
20260509083305 51 227 4.3 6.1 0.00 0.00 0.00 91 1027.8
20260509082802 51 227 0.9 4.3 0.00 0.00 0.00 91 1027.6
20260509082258 51 259 1.7 2.6 0.00 0.00 0.00 91 1027.7